When you browse on this site, cookies collect data to enhance your experience and personalize the content and advertising you see.
Visit our Privacy Policy to learn more. By continuing to use the site, you agree to this use of cookies and data.
  • In Deutschland
  • Länderverzeichnis
  • Für 7 Tage
  • Wassertemperatur
  • Satellitenkarten
  • Wetterkarte
  • Widgets
  • user-avatar
    Anmelden

    Stündliche Wetter El Salvador

    Heute, 20 Januar, Sonntag

    Zeit Temperatur Niederschläge Wind Luftdruck Luftfeuchtigkeit
    00:00 +26°C° 0 mm 4 m/S 757 mmHg 84%
    01:00 +26°C° 0 mm 3 m/S 757 mmHg 85%
    02:00 +26°C° 0 mm 3 m/S 757 mmHg 86%
    03:00 +25°C° 0 mm 3 m/S 757 mmHg 88%
    04:00 +25°C° 0 mm 2 m/S 757 mmHg 88%
    05:00 +25°C° 0 mm 2 m/S 757 mmHg 88%
    06:00 +25°C° 0 mm 2 m/S 757 mmHg 88%
    07:00 +27°C° 0 mm 2 m/S 757 mmHg 79%
    08:00 +29°C° 0 mm 3 m/S 758 mmHg 70%
    09:00 +31°C° 0 mm 3 m/S 758 mmHg 60%
    10:00 +33°C° 0 mm 3 m/S 758 mmHg 58%
    11:00 +33°C° 0 mm 4 m/S 758 mmHg 57%
    12:00 +34°C° 0 mm 4 m/S 757 mmHg 55%
    13:00 +34°C° 0 mm 5 m/S 757 mmHg 56%
    14:00 +33°C° 0 mm 5 m/S 757 mmHg 57%
    15:00 +33°C° 0 mm 5 m/S 756 mmHg 58%
    16:00 +32°C° 0 mm 5 m/S 756 mmHg 62%
    17:00 +30°C° 0 mm 5 m/S 756 mmHg 67%
    18:00 +29°C° 0 mm 5 m/S 756 mmHg 71%
    19:00 +28°C° 0 mm 5 m/S 757 mmHg 74%
    20:00 +28°C° 0 mm 5 m/S 757 mmHg 77%
    21:00 +27°C° 0 mm 4 m/S 758 mmHg 80%
    22:00 +27°C° 0 mm 4 m/S 758 mmHg 81%
    23:00 +27°C° 0 mm 4 m/S 758 mmHg 83%

    Morgen, 21 Januar, Montag

    Zeit Temperatur Niederschläge Wind Luftdruck Luftfeuchtigkeit
    00:00 +26°C° 0 mm 4 m/S 758 mmHg 85%
    01:00 +26°C° 0 mm 3 m/S 758 mmHg 85%
    02:00 +26°C° 0 mm 3 m/S 757 mmHg 85%
    03:00 +26°C° 0 mm 3 m/S 757 mmHg 85%
    04:00 +26°C° 0.1 mm 3 m/S 757 mmHg 85%
    05:00 +26°C° 0.1 mm 2 m/S 758 mmHg 84%
    06:00 +26°C° 0.1 mm 2 m/S 758 mmHg 84%
    07:00 +28°C° 0.1 mm 2 m/S 758 mmHg 76%
    08:00 +29°C° 0.1 mm 3 m/S 758 mmHg 68%
    09:00 +31°C° 0.1 mm 3 m/S 759 mmHg 61%
    10:00 +33°C° 0 mm 4 m/S 758 mmHg 59%
    11:00 +33°C° 0 mm 4 m/S 758 mmHg 56%
    12:00 +34°C° 0 mm 4 m/S 758 mmHg 54%
    13:00 +34°C° 0 mm 4 m/S 757 mmHg 54%
    14:00 +34°C° 0 mm 5 m/S 757 mmHg 55%
    15:00 +33°C° 0 mm 5 m/S 756 mmHg 55%
    16:00 +32°C° 0 mm 5 m/S 756 mmHg 61%
    17:00 +30°C° 0 mm 5 m/S 756 mmHg 67%
    18:00 +29°C° 0 mm 4 m/S 756 mmHg 73%
    19:00 +28°C° 0.1 mm 4 m/S 757 mmHg 76%
    20:00 +28°C° 0.1 mm 4 m/S 757 mmHg 79%
    21:00 +27°C° 0.1 mm 4 m/S 758 mmHg 83%
    22:00 +27°C° 0.1 mm 4 m/S 758 mmHg 83%
    23:00 +27°C° 0.1 mm 4 m/S 758 mmHg 83%

    übermorgen, 22 Januar, Dienstag

    Zeit Temperatur Niederschläge Wind Luftdruck Luftfeuchtigkeit
    00:00 +27°C° 0.1 mm 4 m/S 758 mmHg 83%
    01:00 +27°C° 0.2 mm 4 m/S 758 mmHg 84%
    02:00 +26°C° 0.2 mm 4 m/S 757 mmHg 85%
    03:00 +26°C° 0.2 mm 4 m/S 757 mmHg 86%
    04:00 +26°C° 0.2 mm 4 m/S 757 mmHg 86%
    05:00 +26°C° 0.2 mm 3 m/S 757 mmHg 86%
    06:00 +26°C° 0.2 mm 3 m/S 758 mmHg 86%
    07:00 +28°C° 0 mm 3 m/S 758 mmHg 77%
    08:00 +29°C° 0 mm 3 m/S 758 mmHg 67%
    09:00 +32°C° 0 mm 4 m/S 758 mmHg 58%
    10:00 +33°C° 0 mm 4 m/S 758 mmHg 55%
    11:00 +34°C° 0 mm 4 m/S 758 mmHg 53%
    12:00 +34°C° 0 mm 4 m/S 757 mmHg 50%
    13:00 +34°C° 0 mm 4 m/S 757 mmHg 52%
    14:00 +34°C° 0 mm 4 m/S 756 mmHg 53%
    15:00 +33°C° 0 mm 5 m/S 755 mmHg 55%
    16:00 +32°C° 0 mm 4 m/S 756 mmHg 61%
    17:00 +30°C° 0 mm 4 m/S 756 mmHg 66%
    18:00 +29°C° 0 mm 4 m/S 756 mmHg 71%
    19:00 +28°C° 0 mm 4 m/S 756 mmHg 74%
    20:00 +28°C° 0 mm 4 m/S 757 mmHg 77%
    21:00 +28°C° 0 mm 4 m/S 757 mmHg 79%
    22:00 +27°C° 0 mm 4 m/S 757 mmHg 81%
    23:00 +27°C° 0 mm 4 m/S 757 mmHg 82%

    23 Januar, Mittwoch

    Zeit Temperatur Niederschläge Wind Luftdruck Luftfeuchtigkeit
    00:00 +27°C° 0 mm 4 m/S 757 mmHg 83%
    01:00 +27°C° 0 mm 3 m/S 757 mmHg 84%
    02:00 +26°C° 0 mm 3 m/S 756 mmHg 85%
    03:00 +26°C° 0 mm 2 m/S 756 mmHg 85%
    04:00 +26°C° 0 mm 2 m/S 756 mmHg 85%
    05:00 +26°C° 0 mm 2 m/S 757 mmHg 85%
    06:00 +26°C° 0 mm 2 m/S 757 mmHg 85%
    07:00 +28°C° 0.2 mm 2 m/S 757 mmHg 79%
    08:00 +29°C° 0.2 mm 3 m/S 757 mmHg 73%
    09:00 +30°C° 0.2 mm 3 m/S 758 mmHg 67%
    10:00 +31°C° 0.3 mm 3 m/S 757 mmHg 65%
    11:00 +33°C° 0.3 mm 3 m/S 757 mmHg 63%
    12:00 +33°C° 0.3 mm 4 m/S 757 mmHg 60%
    13:00 +33°C° 0 mm 4 m/S 756 mmHg 60%
    14:00 +33°C° 0 mm 4 m/S 756 mmHg 60%
    15:00 +33°C° 0 mm 4 m/S 755 mmHg 60%
    16:00 +32°C° 0 mm 4 m/S 755 mmHg 65%
    17:00 +30°C° 0 mm 4 m/S 755 mmHg 69%
    18:00 +29°C° 0 mm 4 m/S 755 mmHg 74%
    19:00 +29°C° 0.1 mm 4 m/S 756 mmHg 77%
    20:00 +28°C° 0.1 mm 4 m/S 756 mmHg 80%
    21:00 +28°C° 0.1 mm 4 m/S 757 mmHg 83%
    22:00 +27°C° 0.2 mm 4 m/S 757 mmHg 84%
    23:00 +27°C° 0.2 mm 3 m/S 756 mmHg 85%

    24 Januar, Donnerstag

    Zeit Temperatur Niederschläge Wind Luftdruck Luftfeuchtigkeit
    00:00 +27°C° 0.2 mm 3 m/S 756 mmHg 86%
    01:00 +27°C° 0.1 mm 3 m/S 756 mmHg 87%
    02:00 +26°C° 0.1 mm 2 m/S 755 mmHg 88%
    03:00 +26°C° 0.1 mm 2 m/S 755 mmHg 88%
    04:00 +26°C° 0.3 mm 2 m/S 755 mmHg 89%
    05:00 +26°C° 0.3 mm 1 m/S 756 mmHg 89%
    06:00 +26°C° 0.3 mm 1 m/S 756 mmHg 89%
    07:00 +27°C° 0.4 mm 1 m/S 756 mmHg 81%
    08:00 +29°C° 0.4 mm 1 m/S 757 mmHg 74%
    09:00 +29°C° 0.4 mm 0 m/S 757 mmHg 66%
    10:00 +32°C° 0 mm 1 m/S 757 mmHg 62%
    11:00 +34°C° 0 mm 2 m/S 756 mmHg 58%
    12:00 +35°C° 0 mm 3 m/S 756 mmHg 54%
    13:00 +34°C° 0 mm 3 m/S 755 mmHg 56%
    14:00 +34°C° 0 mm 4 m/S 754 mmHg 58%
    15:00 +33°C° 0 mm 4 m/S 754 mmHg 60%
    16:00 +32°C° 0 mm 4 m/S 754 mmHg 64%
    17:00 +30°C° 0 mm 4 m/S 754 mmHg 68%
    18:00 +29°C° 0 mm 4 m/S 754 mmHg 73%
    19:00 +29°C° 0 mm 4 m/S 755 mmHg 75%
    20:00 +28°C° 0 mm 4 m/S 755 mmHg 77%
    21:00 +28°C° 0 mm 4 m/S 756 mmHg 80%
    22:00 +27°C° 0 mm 3 m/S 756 mmHg 82%
    23:00 +27°C° 0 mm 3 m/S 756 mmHg 84%

    25 Januar, Freitag

    Zeit Temperatur Niederschläge Wind Luftdruck Luftfeuchtigkeit
    00:00 +27°C° 0 mm 2 m/S 756 mmHg 86%
    01:00 +26°C° 0.1 mm 2 m/S 755 mmHg 88%
    02:00 +26°C° 0.1 mm 2 m/S 755 mmHg 90%
    03:00 +25°C° 0.1 mm 1 m/S 755 mmHg 92%
    04:00 +26°C° 0.7 mm 1 m/S 755 mmHg 92%
    05:00 +26°C° 0.7 mm 1 m/S 755 mmHg 92%
    06:00 +26°C° 0.7 mm 1 m/S 756 mmHg 92%
    07:00 +28°C° 0.6 mm 1 m/S 756 mmHg 81%
    08:00 +29°C° 0.6 mm 2 m/S 756 mmHg 71%
    09:00 +31°C° 0.6 mm 2 m/S 756 mmHg 61%
    10:00 +33°C° 0.1 mm 3 m/S 756 mmHg 60%
    11:00 +33°C° 0.1 mm 4 m/S 756 mmHg 59%
    12:00 +34°C° 0.1 mm 5 m/S 755 mmHg 58%
    13:00 +34°C° 0 mm 5 m/S 755 mmHg 57%
    14:00 +34°C° 0 mm 5 m/S 754 mmHg 57%
    15:00 +34°C° 0 mm 5 m/S 754 mmHg 56%
    16:00 +32°C° 0 mm 5 m/S 754 mmHg 61%
    17:00 +30°C° 0 mm 5 m/S 754 mmHg 66%
    18:00 +29°C° 0 mm 5 m/S 755 mmHg 72%
    19:00 +28°C° 0 mm 5 m/S 755 mmHg 74%
    20:00 +28°C° 0 mm 5 m/S 756 mmHg 77%
    21:00 +28°C° 0 mm 4 m/S 757 mmHg 80%
    22:00 +27°C° 0 mm 4 m/S 757 mmHg 81%
    23:00 +27°C° 0 mm 4 m/S 756 mmHg 81%
    Mehr zeigen